DW2871 Weather Reports


time (UTC)temp
C
wind
direction
speed
KPH
gust
KPH
rain 1hr
cm
rain 24hr
cm
rain mn
cm
humidity
%
barometer
mb
20260505121600 -17 277 0.0 0.0 0.00 0.00 0.00 1020.7
20260505120051 -17 279 0.0 0.0 0.00 0.00 0.00 1020.7
20260505114548 -17 278 0.0 0.0 0.00 0.00 0.00 1020.8
20260505113043 -17 271 0.0 0.0 0.00 0.00 0.00 1020.8
20260505111550 -17 271 0.0 0.0 0.00 0.00 0.00 1020.8
20260505101518 -17 269 0.0 0.0 0.00 0.00 0.00 1020.7
20260505100011 -17 270 0.0 0.0 0.00 0.00 0.00 1020.9
20260505094506 -17 269 0.0 0.0 0.00 0.00 0.00 1021.0
20260505093002 -17 270 0.0 0.0 0.00 0.00 0.00 1020.9
20260505091602 -17 269 0.0 0.0 0.00 0.00 0.00 1020.9
20260505090057 -17 269 0.0 0.0 0.00 0.00 0.00 1020.7
20260505084548 -17 269 0.0 0.0 0.00 0.00 0.00 1020.6
20260505083047 -17 269 0.0 0.0 0.00 0.00 0.00 1020.5
20260505081552 -17 269 0.0 0.0 0.00 0.00 0.00 1020.4
20260505080002 -17 269 0.0 0.0 0.00 0.00 0.00 1020.3
20260505074611 -17 269 0.0 0.0 0.00 0.00 0.00 1020.0
20260505073055 -17 270 0.0 0.0 0.00 0.00 0.00 1019.9
20260505071526 -17 269 0.0 0.0 0.00 0.00 0.00 1019.7
20260505070015 -17 269 0.0 0.0 0.00 0.00 0.00 1019.6
20260505064508 -17 269 0.0 0.0 0.00 0.00 0.00 1019.5
20260505063002 -17 269 0.0 0.0 0.00 0.00 0.00 1019.5
20260505061625 -17 269 0.0 0.0 0.00 0.00 0.00 1019.5
20260505060055 -17 269 0.0 0.0 0.00 0.00 0.00 1019.4
20260505054559 -17 269 0.0 0.0 0.00 0.00 0.00 1019.3
20260505053044 -17 269 0.0 0.0 0.00 0.00 0.00 1019.2
20260505051538 -17 269 0.0 0.0 0.00 0.00 0.00 1019.3
20260505041517 -17 271 0.0 0.0 0.00 0.00 0.00 1019.3
20260505040013 -17 258 0.0 0.0 0.00 0.00 0.00 1019.3
20260505034505 -17 238 0.0 0.0 0.00 0.00 0.00 1019.8
20260505033001 -17 227 0.0 0.0 0.00 0.00 0.00 1020.1
20260505031608 -17 246 0.0 0.0 0.00 0.00 0.00 1020.6
20260505030053 -67 279 0.0 0.0 0.00 0.00 0.00 1019.5
20260505024542 -17 293 0.0 0.0 0.00 0.00 0.00 1018.4
20260505023015 -17 261 0.0 0.0 0.00 0.00 0.00 1018.4
20260505021556 -17 254 0.0 0.0 0.00 0.00 0.00 1018.4
20260505020041 -17 263 0.0 0.0 0.00 0.00 0.00 1018.5
20260505014529 -17 246 0.0 0.0 0.00 0.00 0.00 1018.5
20260505013024 -17 248 0.0 0.0 0.00 0.00 0.00 1018.5
20260505011526 -17 288 0.0 0.0 0.00 0.00 0.00 1018.5
20260505010015 -17 264 0.0 0.0 0.00 0.00 0.00 1018.5
20260505004545 -17 292 0.0 0.0 0.00 0.00 0.00 1018.3
20260505003037 -17 238 0.0 0.0 0.00 0.00 0.00 1018.1
20260505001503 -17 286 0.0 0.0 0.00 0.00 0.00 1017.9
20260505000059 -17 261 0.0 0.0 0.00 0.00 0.00 1017.7
20260504234553 -17 287 0.0 0.0 0.00 0.00 0.00 1017.4
20260504233058 -17 273 0.0 0.0 0.00 0.00 0.00 1017.5
20260504231544 -17 259 0.0 0.0 0.00 0.00 0.00 1017.1
20260504230043 -17 246 0.0 0.0 0.00 0.00 0.00 1017.1
20260504224508 -17 292 0.0 0.0 0.00 0.00 0.00 1017.0
20260504223001 -17 271 0.0 0.0 0.00 0.00 0.00 1016.7
20260504221533 -17 271 0.0 0.0 0.00 0.00 0.00 1016.3
20260504220024 -17 273 0.0 0.0 0.00 0.00 0.00 1016.1
20260504214515 -17 271 0.0 0.0 0.00 0.00 0.00 1015.8
20260504213011 -17 279 0.0 0.0 0.00 0.00 0.00 1015.6
20260504211507 -17 280 0.0 0.0 0.00 0.00 0.00 1015.5
20260504210003 -17 295 0.0 0.0 0.00 0.00 0.00 1015.0
20260504204611 -17 300 0.0 0.0 0.00 0.00 0.00 1014.7
20260504203051 -17 304 0.0 0.0 0.00 0.00 0.00 1014.5
20260504201548 -17 252 0.0 0.0 0.00 0.00 0.00 1014.3
20260504200045 -17 285 0.0 0.0 0.00 0.00 0.00 1014.0
20260504194541 -17 275 0.0 0.0 0.00 0.00 0.00 1013.9
20260504193031 -17 279 0.0 0.0 0.00 0.00 0.00 1013.6
20260504191525 -17 286 0.0 0.0 0.00 0.00 0.00 1013.3
20260504190020 -17 289 0.0 0.0 0.00 0.00 0.00 1013.1
20260504184523 -17 360 0.0 0.0 0.00 0.00 0.00 1012.9
20260504183009 -17 283 0.0 0.0 0.00 0.00 0.00 1012.7
20260504181505 -17 250 0.0 0.0 0.00 0.00 0.00 1012.8
20260504180100 -17 277 0.0 0.0 0.00 0.00 0.00 1012.4
20260504174556 -17 271 0.0 0.0 0.00 0.00 0.00 1012.4
20260504173048 -17 271 0.0 0.0 0.00 0.00 0.00 1012.4
20260504171545 -17 257 0.0 0.0 0.00 0.00 0.00 1012.2